www.pogodaiklimat.ru

Погода и климат >> Архив погоды >> Сербия >> Нови-Сад


ПОГОДА в Нови-Саде

  • Прогноз погоды в Нови-Саде
  • Монитор погоды в Нови-Саде

АРХИВ ПОГОДЫ в Нови-Саде

Время (UTC), дата Ветер
(напр.,м/с)
 
Видим.   Явления Облачность Т
(С)
Тd
(С)
f
(%)
Тe
(С)
Тes
(С)
Комфортность P
(гПа)
Po
(гПа)
Тmin
(С)
Tmax
(С)
R
(мм)
R24
(мм)
S
(см)
01 10.07 ЮЗ 1 20 км 9/9 1000 м
[Sc]
+17.2 +16.2 94 +18 +18 1014.1 1003.7
02 10.07 З 1 20 км 10/10 1000 м
[Sc]
+17.2 +15.6 90 +18 +18 1013.9 1003.6
03 10.07 С 1 20 км 9/9 1000 м
[Sc]
+17.4 +14.8 85 +18 +18 1013.9 1003.6
04 10.07 З 1 20 км 9/9 1000 м
[Sc]
+17.2 +13.4 78 +18 +18 1014.4 1004.0
05 10.07 З 2 18 км слаб. дождь 10/10 1000 м
[Sc]
+16.6 +14.8 89 +17 +17 1014.7 1004.3
06 10.07 З 2 20 км в посл. час дождь 10/10 1000 м
[Sc]
+16.4 +14.6 89 +16 +16 1014.9 1004.5 +16.4 0.3
07 10.07 З 3 20 км 10/10 1000 м
[Sc]
+17.3 +15.2 87 +17 +17 1014.9 1004.5
08 10.07 З 4 20 км 10/10 1000 м
[Sc]
+17.6 +14.3 81 +17 +17 1014.8 1004.5
09 10.07 З 3 20 км 10/10 1000 м
[Sc]
+17.6 +14.0 79 +18 +18 1015.2 1004.9
10 10.07 З 3 20 км 10/10 1000 м
[Sc]
+18.4 +14.5 78 +19 +19 1015.2 1004.9
11 10.07 СЗ 4 20 км 10/10 1000 м
[Sc]
+18.8 +12.7 68 +20 +20 1015.1 1004.8
12 10.07 З 4 20 км 8/8 1000 м
[Cu Sc]
+19.3 +12.1 63 +20 +23 1014.9 1004.6
13 10.07 З 3 20 км 6/1 1000 м
[Cu hum Ac As]
+20.0 +10.8 55 +22 +28 комфорт 1014.7 1004.4
14 10.07 З 3 20 км 4/3 1000 м
[Cu hum Ci sp]
+21.5 +9.6 47 +23 +29 комфорт 1014.3 1004.1
15 10.07 З 3 20 км 5/4 1000 м
[Cu Sc Ci sp]
+22.0 +9.8 46 +24 +27 комфорт 1014.1 1003.9
16 10.07 З 4 20 км 5/5 1000 м
[Cu Sc]
+21.6 +9.5 46 +23 +24 комфорт 1013.9 1003.7
17 10.07 З 3 20 км 4/4 1000 м
[Cu Sc]
+21.2 +11.7 55 +23 +24 комфорт 1013.9 1003.7
18 10.07 З 2 20 км 3/1 1000 м
[Sc Ac trans]
+19.8 +14.3 71 +22 +22 комфорт 1013.6 1003.3 +22.0
19 10.07 З 2 20 км ясно +17.2 +13.7 80 +18 +18 1013.7 1003.4
20 10.07 З 1 20 км ясно +15.0 +13.0 88 +15 +15 1014.1 1003.7
21 10.07 ЮЗ 1 20 км ясно +14.2 +12.7 91 +14 +14 1014.5 1004.0
22 10.07 З 2 20 км ясно +13.6 +12.2 91 +13 +13 1014.8 1004.3
23 10.07 З 2 20 км ясно +13.2 +11.4 89 +12 +12 1014.5 1004.0
00 11.07 З 2 20 км ясно +12.4 +10.6 89 +11 +11 1014.3 1003.8
01 11.07 З 2 20 км ясно +12.2 +10.2 88 +11 +11 1014.2 1003.7
02 11.07 З 3 20 км ясно +11.8 +9.2 84 +10 +10 1014.0 1003.5
03 11.07 ЮЗ 1 20 км 3/1 1000 м
[Cu hum Ci sp]
+11.9 +8.8 81 +12 +12 1014.3 1003.8
04 11.07 З 2 20 км 3/1 1000 м
[Cu hum Ci sp]
+12.3 +9.0 80 +11 +12 1014.6 1004.1
05 11.07 ЮЗ 3 20 км 1/1 1000 м
[Sc]
+14.2 +10.3 77 +13 +15 1014.7 1004.2
06 11.07 ЮЗ 2 20 км 1/1 1000 м
[Sc]
+16.6 +9.7 64 +17 +22 1014.5 1004.1 +11.0
07 11.07 З 3 20 км ясно +18.4 +10.7 61 +19 +26 1014.4 1004.1
08 11.07 СЗ 3 20 км ясно +20.2 +11.5 57 +22 +33 комфорт 1014.3 1004.1
09 11.07 З 4 20 км 1/1 1000 м
[Cu hum]
+21.2 +11.5 54 +23 +33 комфорт 1014.3 1004.1
10 11.07 З 4 20 км 3/3 1000 м
[Cu hum]
+23.1 +8.9 40 +24 +33 комфорт 1014.0 1003.9
11 11.07 З 4 20 км 5/5 1000 м
[Cu med, cong]
+23.9 +9.6 40 +25 +31 комфорт 1013.6 1003.5
12 11.07 СЗ 4 20 км 5/5 1000 м
[Cu med, cong]
+24.2 +9.3 39 +25 +31 комфорт 1013.1 1003.0
13 11.07 З 4 20 км 5/5 1000 м
[Cu med, cong]
+24.3 +9.7 40 +25 +30 комфорт 1012.7 1002.6
14 11.07 З 4 20 км 4/4 1000 м
[Cu med, cong]
+24.6 +9.7 39 +25 +30 комфорт 1012.5 1002.4
15 11.07 З 4 20 км 4/4 1000 м
[Cu med, cong]
+24.3 +7.8 35 +25 +27 комфорт 1012.3 1002.2
16 11.07 З 5 20 км 4/4 1000 м
[Cu Sc]
+24.0 +8.4 37 +25 +26 комфорт 1012.1 1002.0
17 11.07 З 3 20 км 4/4 1000 м
[Cu Sc]
+23.7 +8.6 38 +24 +25 комфорт 1012.1 1002.0
18 11.07 З 2 20 км 3/3 1000 м
[Cu Sc]
+22.1 +10.6 48 +24 +24 комфорт 1012.2 1002.0 +25.6
19 11.07 З 2 20 км 3/3 1000 м
[Cu Sc]
+18.7 +12.0 65 +20 +20 1012.5 1002.2
20 11.07 ЮЗ 2 20 км 1/1 1000 м
[Sc]
+16.9 +12.2 74 +17 +17 1012.6 1002.3
21 11.07 СЗ 3 20 км 1/1 1000 м
[Sc]
+16.7 +12.5 76 +16 +16 1013.2 1002.8
22 11.07 З 2 20 км ясно +15.4 +12.5 83 +15 +15 1013.4 1003.0
23 11.07 СЗ 1 20 км ясно +14.0 +12.5 91 +14 +14 1013.6 1003.1
00 12.07 З 2 20 км ясно +14.3 +12.4 88 +14 +14 1013.5 1003.1
01 12.07 СЗ 1 20 км ясно +13.1 +11.3 89 +13 +13 1013.5 1003.0
02 12.07 С 1 20 км ясно +12.5 +11.1 91 +12 +12 1013.5 1003.0
03 12.07 СВ 2 20 км ясно +11.6 +10.3 92 +10 +10 1013.5 1003.0
04 12.07 В 2 20 км 1/0
[Ci fib]
+12.3 +10.7 90 +11 +12 1013.7 1003.2
05 12.07 В 2 20 км 4/0
[Ci fib]
+15.2 +12.7 85 +15 +17 1013.8 1003.4
06 12.07 В 3 20 км 5/0
[Ci sp]
+18.8 +13.7 72 +20 +24 1013.7 1003.4 +11.4
07 12.07 ЮВ 2 20 км 8/1 1000 м
[Cu hum Cs]
+21.2 +12.5 58 +23 +30 комфорт 1013.8 1003.6
08 12.07 ЮВ 2 20 км 6/5 1000 м
[Cu Sc Ci fib]
+22.3 +13.2 56 +25 +31 комфорт 1013.8 1003.6
09 12.07 ЮЗ 2 20 км 8/5 1000 м
[Cu Sc Ci fib]
+22.8 +14.4 59 +26 +33 жарко 1014.0 1003.8
10 12.07 СЗ 2 20 км 8/5 1000 м
[Cu Sc Ci sp]
+23.2 +13.9 56 +27 +35 душно 1013.8 1003.7
11 12.07 З 2 20 км 8/4 1000 м
[Cu Sc Cs]
+25.3 +14.1 50 +28 +37 жарко 1013.3 1003.2
12 12.07 З 3 20 км 9/9 1000 м
[Cu Sc]
+23.8 +13.0 51 +26 +27 жарко 1013.3 1003.2
13 12.07 СЗ 5 20 км в посл. час гроза 9/9 1000 м
[Cu Sc]
+24.4 +11.1 43 +26 +27 жарко 1013.1 1003.0
14 12.07 СЗ 2 20 км {гроза} 9/9 1000 м
[Cu Sc]
+24.2 +10.9 43 +25 +26 комфорт 1013.3 1003.2
15 12.07 С 2 20 км {гроза} 9/9 1000 м
[Cu Sc]
+24.0 +11.8 46 +26 +26 жарко 1013.0 1002.9
16 12.07 ЮВ 3 20 км 10/10 1000 м
[Sc]
+22.6 +14.0 58 +26 +26 жарко 1013.1 1002.9
17 12.07 В 3 20 км 8/5 1000 м
[Sc Cs]
+21.5 +15.4 68 +25 +25 комфорт 1012.6 1002.4
18 12.07 ЮВ 2 20 км {гроза} 8/8 1000 м
[Sc]
+20.6 +14.4 68 +24 +24 комфорт 1012.2 1002.0 +26.1
19 12.07 ЮВ 1 20 км 8/8 1000 м
[Sc]
+19.8 +15.4 76 +23 +23 комфорт 1012.2 1002.0
20 12.07 ЮВ 1 20 км 4/0
[Ac trans]
+19.2 +15.1 77 +22 +22 комфорт 1012.5 1002.2
21 12.07 СВ 1 20 км 3/0
[Ac trans]
+17.0 +13.7 81 +18 +18 1012.5 1002.2
22 12.07 СВ 1 20 км 3/0
[Ci fib]
+17.0 +13.7 81 +18 +18 1012.5 1002.2
23 12.07 Ю 1 20 км 4/0
[Ci fib]
+15.4 +13.2 87 +16 +16 1012.6 1002.2
00 13.07 ЮВ 1 20 км 1/1
[Cu hum]
+15.0 +13.3 90 +15 +15 1012.2 1001.8
01 13.07 ЮВ 1 20 км ясно +14.8 +13.5 92 +15 +15 1012.0 1001.6
02 13.07 штиль 0 20 км 5/0
[Ci sp]
+14.6 +13.8 95 +14 +14 1011.7 1001.3
03 13.07 ЮВ 1 20 км 6/0
[Ac trans Ci sp]
+14.5 +13.5 94 +15 +15 1011.5 1001.1
04 13.07 ЮВ 1 20 км 9/0
[Ac As]
+15.3 +14.0 92 +16 +16 1011.1 1000.7
05 13.07 В 1 20 км 9/3 1000 м
[Sc Ac As]
+16.6 +15.0 90 +17 +18 1011.0 1000.7
06 13.07 В 1 20 км 10/10 1000 м
[Sc]
+18.0 +14.8 82 +19 +19 1011.4 1001.1 +14.4
07 13.07 В 1 20 км 10/10 1000 м
[Sc]
+19.0 +14.7 76 +21 +21 комфорт 1011.4 1001.1
08 13.07 штиль 0 20 км 10/10 1000 м
[Sc]
+20.4 +13.6 65 +22 +22 комфорт 1011.3 1001.1
09 13.07 СВ 1 20 км 10/10 1000 м
[Sc]
+20.6 +14.5 68 +24 +24 комфорт 1011.1 1000.9
10 13.07 С 2 20 км 9/9 1000 м
[Cu Sc]
+21.6 +13.2 59 +24 +26 комфорт 1011.1 1000.9
11 13.07 СВ 1 20 км 9/5 1000 м
[Cu Sc Cs]
+23.4 +13.5 54 +27 +36 душно 1010.7 1000.6
12 13.07 ЮВ 2 20 км 10/10 1000 м
[Cu Sc]
+24.1 +13.6 52 +26 +26 жарко 1010.2 1000.1
13 13.07 СЗ 3 20 км 10/10 1000 м
[Cu Sc]
+24.0 +14.2 54 +26 +26 жарко 1010.1 1000.0
14 13.07 С 4 20 км гроза без осадков 10/10 1000 м
[Cb cap]
+22.7 +15.4 63 +27 +27 душно 1010.1 1000.0
15 13.07 СЗ 3 20 км гроза, ливневой дождь 10/10 600 м
[Cb cap]
+18.1 +16.0 88 +18 +18 1010.6 1000.3
16 13.07 З 2 10 км гроза, ливневой дождь 10/10 600 м
[Cb cap]
+17.9 +16.6 92 +18 +18 1010.5 1000.2
17 13.07 З 2 15 км в посл. час гроза {дождь} 9/9 1000 м
[Cu Sc]
+17.6 +16.6 94 +18 +18 1010.1 999.8
18 13.07 З 3 20 км {гроза, дождь} 9/4 1000 м
[Cu Sc Ac As]
+17.8 +16.1 90 +18 +18 1010.4 1000.1 +24.1 1
19 13.07 З 2 20 км 8/4 1000 м
[Sc Ac As]
+16.3 +15.3 94 +16 +16 1011.0 1000.6
20 13.07 З 3 20 км 9/9 1000 м
[Cu Sc]
+16.4 +15.3 93 +16 +16 1011.4 1001.0
21 13.07 З 3 20 км 9/9 1000 м
[Sc]
+16.2 +14.9 92 +16 +16 1011.2 1000.8
22 13.07 З 3 20 км 9/9 1000 м
[Sc]
+15.6 +14.6 94 +15 +15 1011.2 1000.8
23 13.07 З 3 20 км 9/1 1000 м
[Cu hum Ac As]
+15.5 +14.7 95 +15 +15 1011.0 1000.6
00 14.07 З 3 20 км 4/4 1000 м
[Cu hum]
+15.3 +14.8 97 +15 +15 1010.8 1000.4
01 14.07 З 3 20 км 1/1 1000 м
[Sc]
+15.0 +14.2 95 +14 +14 1010.6 1000.2
02 14.07 З 2 20 км 6/6 1000 м
[Sc]
+15.0 +14.3 96 +15 +15 1010.5 1000.1
03 14.07 З 3 18 км 10/10 1000 м
[Sc]
+15.5 +14.7 95 +15 +15 1010.2 999.8
04 14.07 З 2 15 км 9/9 1000 м
[Sc]
+15.7 +14.9 95 +16 +16 1010.0 999.6
05 14.07 З 2 15 км 9/9 1000 м
[Sc]
+16.3 +15.5 95 +16 +17 1010.4 1000.1
06 14.07 З 4 15 км 9/9 1000 м
[Cu Sc]
+16.9 +15.3 90 +16 +17 1010.4 1000.1 +14.7
07 14.07 СЗ 4 15 км 9/9 1000 м
[Cu Sc]
+17.9 +15.2 84 +18 +18 1010.4 1000.1
08 14.07 СЗ 4 15 км 9/9 1000 м
[Cu Sc]
+18.9 +15.1 79 +20 +21 1010.7 1000.4
09 14.07 СЗ 4 15 км 9/9 1000 м
[Cu Sc]
+19.5 +14.9 75 +21 +22 комфорт 1010.6 1000.4
10 14.07 СЗ 4 18 км 9/9 1000 м
[Cu Sc]
+21.2 +15.7 71 +24 +26 комфорт 1010.6 1000.4
11 14.07 З 4 20 км 8/8 1000 м
[Cu Sc]
+22.2 +15.1 64 +26 +28 душно 1010.5 1000.4
12 14.07 СЗ 4 20 км 6/6 1000 м
[Cu Sc]
+23.2 +14.5 58 +27 +32 душно 1010.1 1000.0
13 14.07 СЗ 5 20 км 5/5 1000 м
[Cu Sc]
+24.6 +14.0 52 +27 +31 жарко 1009.9 999.8
14 14.07 З 4 20 км 5/4 1000 м
[Cu med, cong Ci fib]
+25.1 +14.2 51 +28 +32 жарко 1009.7 999.7
15 14.07 СЗ 4 20 км 5/4 1000 м
[Cu med, cong Ci fib]
+25.2 +14.2 50 +28 +30 жарко 1009.5 999.5
16 14.07 С 8
{12}
20 км слаб. дождь 8/8 1000 м
[Cu Sc]
+19.4 +15.9 80 +21 +21 комфорт 1009.7 999.5
17 14.07 С 3 20 км в посл. час дождь 4/4 1000 м
[Cu Sc]
+20.6 +17.2 81 +24 +25 комфорт 1009.7 999.5
18 14.07 С 2
{12}
20 км {дождь} 4/4 1000 м
[Cu Sc]
+19.6 +15.8 79 +22 +22 комфорт 1010.5 1000.3 +25.2 0.5
19 14.07 З 1 20 км 3/3 1000 м
[Cu Sc]
+17.8 +15.6 87 +19 +19 1011.2 1000.9
20 14.07 З 2 20 км 5/5 1000 м
[Sc]
+17.1 +14.5 85 +17 +17 1011.5 1001.2
21 14.07 З 2 20 км 4/4 1000 м
[Sc]
+16.2 +14.2 88 +16 +16 1011.5 1001.1
22 14.07 З 1 20 км 5/3 1000 м
[Sc Ac trans]
+15.6 +14.3 92 +16 +16 1011.5 1001.1
23 14.07 З 2 20 км ясно +15.0 +14.0 94 +15 +15 1011.4 1001.0
00 15.07 З 2 20 км ясно +14.6 +13.6 94 +14 +14 1011.3 1000.9
01 15.07 З 2 20 км ясно +14.0 +13.1 94 +13 +13 1011.2 1000.8
02 15.07 ЮЗ 1 20 км 1/1 1000 м
[Sc]
+13.4 +12.5 94 +13 +13 1011.6 1001.1
03 15.07 З 2 20 км 1/1 1000 м
[Sc]
+13.2 +12.2 94 +12 +12 1011.5 1001.0
04 15.07 З 2 20 км 1/1 1000 м
[Sc]
+13.1 +12.2 94 +12 +13 1011.7 1001.2
05 15.07 З 2 20 км 3/3 1000 м
[Cu Sc]
+14.6 +13.4 93 +14 +16 1011.9 1001.5
06 15.07 СЗ 2 20 км 3/3 1000 м
[Cu Sc]
+16.4 +14.1 86 +16 +20 1012.1 1001.7 +12.8
07 15.07 С 3 20 км ясно +19.0 +14.0 73 +20 +28 1012.0 1001.7
08 15.07 З 2 20 км 1/1 1000 м
[Cu hum]
+20.9 +13.4 62 +24 +36 комфорт 1012.0 1001.8
09 15.07 С 3 20 км 1/1 1000 м
[Cu hum]
+22.4 +13.2 56 +25 +37 комфорт 1012.0 1001.9
10 15.07 СЗ 4 20 км 3/3 1000 м
[Cu hum]
+22.7 +12.6 53 +25 +34 комфорт 1012.0 1001.9
11 15.07 С 3 20 км 4/4 1000 м
[Cu hum]
+24.7 +12.8 47 +27 +36 жарко 1012.0 1001.9
12 15.07 С 3 20 км 4/4 1000 м
[Cu hum]
+25.2 +12.2 44 +27 +35 жарко 1011.9 1001.8
13 15.07 С 2 20 км 5/5 1000 м
[Cu med, cong]
+25.4 +11.6 42 +27 +34 жарко 1011.4 1001.4
14 15.07 С 5 20 км 5/5 1000 м
[Cu med, cong]
+25.7 +12.0 42 +27 +30 жарко 1011.4 1001.4
15 15.07 С 4 20 км 4/4 1000 м
[Cu med, cong]
+25.7 +11.0 40 +27 +29 жарко 1011.4 1001.4
16 15.07 С 4 20 км 3/3 1000 м
[Cu med, cong]
+25.2 +11.0 41 +26 +28 жарко 1011.4 1001.4
17 15.07 С 3 20 км 3/0
[Ci sp]
+24.6 +10.3 40 +26 +26 жарко 1011.5 1001.4
18 15.07 С 2 20 км 3/0
[Ci sp]
+22.2 +11.4 50 +24 +24 комфорт 1011.8 1001.6 +26.3
19 15.07 СЗ 1 20 км 4/0
[Ci sp]
+20.1 +11.5 58 +23 +23 комфорт 1012.0 1001.8
20 15.07 СЗ 1 20 км 4/0
[Ci sp]
+18.7 +10.6 59 +20 +20 1012.7 1002.4
21 15.07 З 2 20 км 4/0
[Ci sp]
+16.2 +11.8 75 +16 +16 1012.8 1002.4
22 15.07 ЮЗ 2 20 км 3/0
[Ci sp]
+15.8 +11.9 78 +16 +16 1013.0 1002.6
23 15.07 З 2 20 км 3/0
[Ci sp]
+14.6 +12.6 88 +14 +14 1013.1 1002.7
00 16.07 З 2 20 км 4/0
[Ci sp]
+13.1 +11.5 90 +12 +12 1013.2 1002.7
01 16.07 ЮЗ 2 20 км 4/0
[Ci sp]
+13.4 +12.0 91 +13 +13 1013.2 1002.7
02 16.07 З 2 20 км 4/0
[Ci sp]
+12.5 +11.3 92 +12 +12 1013.2 1002.7
03 16.07 ЮЗ 2 20 км 4/0
[Ci sp]
+12.3 +11.2 93 +11 +11 1013.0 1002.5
04 16.07 ЮЗ 2 20 км 3/0
[Ci sp]
+12.9 +11.8 93 +12 +12 1013.0 1002.5
05 16.07 ЮЗ 1 20 км 1/0
[Ci sp]
+15.8 +13.1 84 +16 +19 1012.9 1002.5
06 16.07 З 1 20 км 1/0
[Ci sp]
+19.2 +12.2 64 +21 +27 комфорт 1012.8 1002.5 +11.7
07 16.07 С 1 20 км 1/0
[Ci fib]
+21.9 +13.5 59 +25 +35 комфорт 1012.8 1002.6
08 16.07 СЗ 1 20 км 1/0
[Ac trans]
+23.7 +11.9 48 +25 +40 комфорт 1012.7 1002.6
09 16.07 З 2 20 км 4/4 1000 м
[Cu Sc]
+25.2 +10.1 39 +26 +36 жарко 1012.8 1002.7
10 16.07 З 2 20 км 6/6 1000 м
[Cu Sc]
+25.4 +10.3 39 +26 +34 жарко 1013.0 1002.9
11 16.07 СЗ 2 20 км 6/6 1000 м
[Cu Sc]
+26.7 +10.0 35 +27 +35 жарко 1012.7 1002.7
12 16.07 СЗ 4 20 км 4/4 1000 м
[Cu Sc]
+26.6 +10.7 37 +27 +34 жарко 1012.4 1002.4
13 16.07 СЗ 4 20 км 4/4 1000 м
[Cu Sc]
+27.6 +10.6 35 +28 +34 жарко 1012.1 1002.1
14 16.07 СЗ 3 20 км 4/4 1000 м
[Cu Sc]
+27.3 +9.5 33 +28 +33 жарко 1011.8 1001.8
15 16.07 СЗ 3 20 км 3/3 1000 м
[Cu Sc]
+27.6 +10.8 35 +28 +32 жарко 1011.6 1001.6
16 16.07 СЗ 3 20 км 3/3 1000 м
[Cu Sc]
+26.8 +10.6 36 +28 +29 жарко 1011.6 1001.6
17 16.07 С 2 20 км 3/3 1000 м
[Cu Sc]
+26.4 +10.4 37 +27 +28 жарко 1011.7 1001.7
18 16.07 СЗ 1 20 км 3/3 1000 м
[Cu Sc]
+24.9 +11.0 42 +26 +26 жарко 1011.6 1001.5 +28.0
19 16.07 штиль 0 20 км 1/1 1000 м
[Cu Sc]
+22.4 +12.6 54 +25 +25 комфорт 1011.9 1001.8
20 16.07 ЮЗ 2 20 км ясно +20.8 +12.4 59 +24 +24 комфорт 1012.4 1002.2
21 16.07 З 1 20 км ясно +18.2 +13.6 75 +20 +20 1012.7 1002.4
22 16.07 ЮЗ 1 20 км ясно +16.5 +14.0 85 +17 +17 1012.9 1002.5
23 16.07 ЮЗ 1 20 км ясно +16.7 +13.2 80 +18 +18 1012.9 1002.5
00 17.07 З 2 20 км ясно +15.6 +13.6 88 +15 +15 1012.9 1002.5

 

Местоположение метеостанции Нови-Сад (Сербия): широта 45.33 долгота 19.85 высота над уровнем моря 87 м.

В архиве по умолчанию представлена погода в Нови-Саде за последнюю неделю. Архивные данные за месяц целиком и за предыдущие месяцы, начиная с января 2011 года, Вы можете получить, выбрав интересующий диапазон дат из раскрывающегося списка и нажав кнопку "Ввод!".


*Определитесь, кто Вы:
робот инопланетянин человек

Внимание! Время в таблицах - всемирное. Для получения местного времени необходимо прибавить поправку, которая равна 1 ч.

Смотрите также архив погоды в соседних городах и на ближайших метеорологических станциях:

Погода в Сремска-Митровице (Сербия) (35 км)
Погода в Зренянине (Сербия) (45 км)
Погода в Белград аэропорту (Сербия) (66 км)
Погода в Сомборе (Сербия) (73 км)
Погода в Кикинде (Сербия) (75 км)
Погода в Белграде (Сербия) (76 км)
Погода в Осиек аэропорту (Хорватия) (82 км)
Погода в Жимболии (Румыния) (83 км)
Погода в Паличе (Сербия) (86 км)
Погода в Градиште (Хорватия) (92 км)

Пояснения к столбцам:

Ветер - указаны скорость ветра в м/с - средняя за 10 мин, порывы в срок и между сроками (в фигурных скобках) и направление, откуда дует ветер: С - северный, СВ - северо-восточный, В - восточный, ЮВ - юго-восточный, Ю - южный, ЮЗ - юго-западный, З - западный, СЗ - северо-западный.
Видимость - горизонтальная дальность видимости в метрах или километрах. При видимости от 1 до 10 км при отсутствии осадков обычно наблюдается дымка, при ухудшении видимости до 1 км и менее - туман. В сухую погоду видимость может ухудшаться дымом, пылью или мглою.
Явления - указаны атмосферные явления, наблюдавшиеся в срок или в последний час перед сроком; фигурными скобками обозначены явления, наблюдавшиеся между сроками (за 1-3 часа до срока); квадратными скобками обозначены град или гололедные отложения с указанием их диаметра в мм.
Облачность - указаны через наклонную черту общая и нижняя облачность в баллах и высота нижней границы облаков в метрах; квадратными скобками обозначены формы облаков: Ci - перистые, Cs - перисто-слоистые, Cc - перисто-кучевые, Ac - высококучевые, As - высокослоистые, Sc - слоисто-кучевые, Ns - слоисто-дождевые, Cu - кучевые, Cb - кучево-дождевые. Подробнее классификацию облаков см. в Атласе облаков (PDF).
T - Температура воздуха - температура, измеренная на высоте 2 м над землей.
Td - Температура точки росы - температура, при понижении до которой содержащийся в воздухе водяной пар достигнет насыщения.
f - Относительная влажность воздуха - влажноcть воздуха, измеренная на высоте 2 м над землей.
Te - Эффективная температура - температура, которую ощущает одетый по сезону человек в тени. Характеристика душности погоды. При расчете учитывается влияние влажности воздуха и скорости ветра на теплоощущения человека.
Tes - Эффективная температура на солнце - температура, которую ощущает человек, с поправкой на солнечный нагрев. Характеристика знойности погоды. Зависит от высоты солнца над горизонтом, облачности и скорости ветра. Ночью, в пасмурную погоду, а также при ветре 12 м/с и более поправка равна нулю.
P - Атмосферное давление - приведенное к уровню моря атмосферное давление.
Po - Атмосферное давление - измеренное на уровне метеостанции атмосферное давление.
Tmin - Минимальная температура - минимум температуры воздуха на высоте 2 м над землей.
Tmax - Максимальная температура - максимум температуры воздуха на высоте 2 м над землей.
R - Количество осадков - Количество выпавших осадков за период времени, мм. При наведении курсора мыши на число - период времени, за который выпало указанное количество осадков.
R24 - Количество осадков - Количество выпавших осадков за 24 часа, мм.
S - Снежный покров - Высота снежного покрова, см. При наведении курсора мыши на число - состояние снежного покрова и степень покрытия местности в баллах.